Wind_Speed
28 29 33 28 23 24 12 18 16 19 22 22 26 27 34 29 34 36 34 31 27 25 24 28 32 29 27 28 27 26 25 24 24 24 24 24 24 25 25 25 25 24 25 28
25 34 31 26 23 23 26 20 16 16 19 26 28 30 31 31 35 37 34 29 27 26 24 30 34 27 26 26 27 26 25 24 23 22 22 22 22 22 25 26 27 27 27 27
28 18 26 22 24 23 25 23 21 16 14 20 24 38 36 36 36 36 34 32 31 28 26 33 32 27 28 26 25 25 24 24 24 23 23 23 23 24 24 27 29 30 29 29
22 21 14 29 25 24 23 21 22 18 13 12 10 11 23 15 23 25 25 25 24 27 31 33 31 29 27 25 24 23 23 23 24 24 25 26 27 26 25 24 24 25 29 28
20 24 22 23 27 23 22 16 17 17 21 19 24 15 11 9 25 29 26 25 24 24 25 31 28 26 24 25 25 24 23 25 27 27 26 25 24 23 22 20 21 23 25 28
28 15 24 29 23 21 17 17 16 15 15 14 24 20 18 21 24 18 17 19 26 31 29 27 27 27 23 23 22 24 25 26 28 28 26 23 21 20 20 19 19 20 22 24
26 27 22 17 21 22 25 20 7 5 6 7 5 21 32 9 11 13 20 18 17 21 23 25 27 26 20 20 22 25 30 29 25 20 18 18 18 19 19 20 21 21 21 22
20 12 31 27 27 27 31 31 10 6 4 3 22 14 18 10 23 15 22 20 20 21 25 26 23 19 20 22 26 27 24 21 19 19 21 22 22 23 24 25 26 26 26 26
21 18 12 25 31 28 28 35 27 12 16 2 11 15 16 19 15 15 21 26 28 26 26 24 22 21 22 26 24 25 22 21 23 25 25 25 25 28 30 31 32 33 33 32
12 8 14 23 19 32 20 21 22 24 4 5 10 21 22 5 12 19 22 18 24 24 27 28 26 26 27 27 27 26 26 27 27 27 28 30 31 32 33 34 35 35 34 34
37 19 13 29 30 34 36 24 18 18 16 4 2 10 17 18 18 18 20 20 25 25 25 30 29 28 28 29 29 29 31 30 30 30 30 31 33 34 34 35 35 34 34 34
40 22 16 31 27 24 33 34 34 16 13 17 22 33 32 25 21 19 13 19 20 21 25 30 26 23 29 31 32 33 34 34 33 31 32 35 34 34 34 34 34 33 32 31
42 25 11 10 22 24 35 35 37 37 30 23 15 39 31 24 19 31 35 22 25 30 24 25 26 29 30 33 32 32 32 34 34 33 37 36 35 35 35 34 32 31 30 29
36 35 36 31 30 25 33 38 40 37 27 35 36 56 48 38 21 18 22 24 25 28 31 33 34 37 33 32 29 30 32 34 35 38 39 36 36 36 37 37 35 33 31 30
35 37 39 46 37 21 21 28 37 42 47 31 48 43 54 48 43 38 36 33 30 36 39 39 40 37 37 37 37 37 36 39 38 36 36 37 37 37 37 38 36 34 33 31
43 37 39 41 42 41 42 23 25 32 38 45 53 48 47 46 43 38 37 37 33 38 42 40 41 43 43 39 39 41 38 43 43 43 40 37 37 37 38 38 36 35 34 33
44 47 25 30 40 35 28 45 44 42 44 39 40 47 44 50 48 45 46 41 40 43 46 44 42 41 41 39 39 37 39 42 45 44 42 39 38 37 38 37 36 35 35 35
42 44 37 25 25 15 36 35 36 41 43 42 43 46 50 50 48 44 47 45 43 39 43 45 45 43 42 41 42 42 39 41 45 46 43 40 39 39 38 37 36 36 36 37
31 37 28 24 25 30 16 35 37 32 40 39 43 43 38 37 41 45 40 42 39 38 41 42 42 43 43 42 41 42 43 43 44 47 44 42 40 39 38 37 37 37 37 38
34 35 34 18 13 15 39 41 39 34 28 41 43 40 41 39 42 41 37 30 31 33 33 33 36 35 33 35 39 41 44 45 47 47 44 43 42 38 37 37 37 37 38 39
37 35 38 32 21 18 29 34 29 24 39 37 34 31 19 29 28 30 33 33 30 29 28 30 34 31 32 32 33 36 41 44 47 46 45 45 41 37 38 37 37 38 38 39
32 22 25 30 24 23 45 36 35 45 34 37 39 31 26 27 30 32 35 33 32 35 38 36 29 28 30 31 32 35 37 41 45 45 46 43 37 37 37 37 37 38 39 39
24 38 34 25 27 34 36 37 37 32 27 28 36 37 34 34 32 34 30 33 37 41 41 41 41 38 35 35 36 36 37 40 43 45 43 38 35 36 37 37 37 38 39 40
29 30 31 35 43 45 43 40 36 34 31 32 36 39 45 44 35 38 42 43 41 42 43 42 43 40 40 41 43 36 37 41 44 42 37 33 33 34 35 35 37 39 40 41
34 32 38 39 45 46 44 44 43 42 43 44 45 46 44 42 40 44 47 45 43 42 43 41 43 42 43 42 38 41 39 40 40 34 31 32 30 31 35 37 38 39 40 42
42 44 40 48 48 41 44 45 43 42 40 37 36 38 38 36 38 41 41 39 39 43 46 45 46 46 45 40 38 39 40 35 28 27 29 32 34 33 36 37 38 40 42 45
Wind_Direction
223 223 221 227 229 222 199 230 251 228 239 252 256 254 255 251 257 255 255 253 256 260 265 265 268 272 277 281 281 281 282 282 281 279 279 280 281 282 284 285 285 284 279 278
218 226 230 230 234 227 217 232 221 232 240 250 256 259 259 253 249 258 263 260 261 259 259 261 267 277 276 279 280 281 280 280 281 284 287 288 287 286 284 281 279 274 274 275
216 230 228 216 215 221 228 228 228 233 264 262 276 274 267 266 266 265 263 262 260 260 254 258 272 277 275 274 276 278 280 283 286 287 287 288 288 286 283 282 282 283 281 278
227 224 229 205 216 215 225 227 232 223 246 263 275 288 257 260 262 253 261 262 264 250 249 257 265 267 271 274 276 278 280 284 286 288 289 289 287 288 286 283 281 281 281 280
209 213 213 217 216 217 231 217 242 247 247 260 239 276 288 273 254 261 262 262 260 252 253 253 258 260 265 272 275 279 283 285 287 289 290 289 288 286 285 286 287 286 286 287
221 220 210 231 227 218 218 218 225 231 241 247 242 230 275 261 272 277 249 253 248 250 255 261 257 267 268 274 277 285 289 292 293 293 292 291 290 289 291 292 291 291 292 294
215 228 224 213 198 204 209 195 171 208 211 234 234 221 233 211 242 235 250 242 246 256 264 265 258 268 262 272 282 291 295 292 290 291 292 293 294 293 292 291 293 293 291 290
201 210 223 222 211 201 202 195 171 184 199 265 220 238 244 243 234 228 243 249 255 270 267 266 258 250 269 279 291 293 286 284 285 290 292 291 290 290 291 293 294 295 294 293
204 221 236 231 222 206 208 218 216 277 287 280 231 252 247 250 248 244 247 260 267 269 270 266 254 261 283 289 286 285 280 281 283 285 285 283 284 285 286 287 288 291 291 289
218 203 211 216 213 210 218 223 211 220 209 222 243 243 237 233 258 273 271 270 267 267 259 261 261 276 283 280 283 286 278 280 280 281 282 283 285 285 285 286 286 287 288 290
219 217 208 195 201 205 202 213 201 208 222 192 256 235 248 249 258 280 271 273 268 265 261 262 267 271 276 283 283 283 277 278 281 283 285 287 289 289 290 290 290 289 290 291
210 220 217 207 217 226 222 223 212 202 208 232 256 263 246 255 268 283 272 273 276 273 265 255 260 281 287 282 277 274 273 277 278 281 285 289 290 291 291 291 291 291 291 291
205 209 188 202 226 213 214 219 225 229 233 235 234 257 272 287 272 270 263 260 268 272 258 258 265 283 280 273 270 268 269 272 275 273 288 289 290 291 292 292 293 293 293 293
209 215 216 223 232 228 221 223 223 217 225 236 232 260 268 261 254 267 274 270 267 262 266 271 272 283 277 276 268 277 272 267 271 273 285 285 288 289 289 290 293 293 294 294
212 216 225 236 236 235 234 241 234 227 236 228 248 248 268 270 269 268 267 272 274 272 271 270 274 278 278 278 268 275 272 264 266 281 282 282 285 285 287 286 287 289 291 292
209 224 226 235 242 240 241 242 233 237 243 244 250 253 264 272 269 262 261 265 269 272 274 273 276 282 282 279 267 271 271 263 268 271 281 280 280 281 284 281 282 286 288 288
211 222 222 236 245 247 248 247 243 246 250 251 244 263 279 278 277 279 285 282 278 270 272 271 277 281 279 275 270 269 270 267 269 270 278 276 278 280 283 278 279 282 284 284
219 224 223 242 250 236 251 258 253 254 255 258 261 269 273 279 281 283 282 277 276 275 275 282 282 285 282 276 270 268 268 269 268 270 275 272 277 277 280 275 277 280 280 280
216 224 223 233 242 249 253 253 248 246 259 268 267 271 272 273 274 276 274 280 278 276 272 274 277 282 282 278 272 266 265 268 267 270 272 269 275 277 278 273 276 278 278 279
212 218 220 225 231 238 255 258 256 265 248 272 271 266 276 280 273 275 283 285 282 277 277 274 279 280 277 275 270 265 262 264 267 269 268 267 272 275 272 272 273 275 277 277
211 216 221 231 241 245 253 271 264 216 252 277 274 275 262 268 268 282 281 284 287 285 282 288 291 277 270 273 273 268 265 265 266 267 264 267 269 272 272 274 277 277 279 280
212 209 223 233 239 248 260 254 242 264 264 274 277 257 275 283 274 274 279 268 271 280 282 284 275 275 278 274 272 268 263 262 263 261 262 265 268 268 270 274 277 280 282 284
229 232 226 226 240 253 261 263 265 275 267 265 258 269 283 286 270 267 261 260 265 270 277 273 272 271 277 282 279 268 263 259 257 260 262 263 263 268 273 277 281 284 287 289
246 252 242 247 251 256 258 259 260 261 269 268 263 265 278 279 269 264 263 278 272 268 270 274 275 272 274 272 274 267 259 257 256 257 258 260 265 271 277 283 287 288 289 291
260 262 255 247 263 262 259 262 268 269 268 269 268 268 273 273 267 265 269 271 269 268 272 274 270 272 274 269 267 266 256 254 254 256 259 263 271 278 286 286 287 290 292 295
265 267 258 264 279 273 278 278 275 275 275 272 270 268 269 268 272 272 272 273 274 267 273 272 269 274 269 263 260 256 251 248 251 253 258 270 282 286 284 287 290 292 296 301
Height
3110 3113 3112 3119 3125 3129 3133 3135 3136 3138 3138 3134 3134 3132 3134 3138 3136 3139 3142 3145 3148 3150 3151 3147 3147 3150 3151 3152 3152 3152 3152 3152 3153 3153 3153 3153 3153 3153 3152 3151 3151 3151 3150 3149
3106 3103 3111 3117 3121 3125 3127 3130 3132 3135 3132 3131 3129 3125 3127 3129 3130 3132 3134 3139 3141 3143 3145 3139 3140 3144 3145 3146 3145 3146 3146 3146 3147 3147 3147 3147 3146 3146 3145 3144 3144 3144 3144 3143
3098 3102 3107 3111 3115 3119 3122 3125 3129 3132 3129 3127 3126 3116 3119 3122 3123 3125 3128 3131 3133 3136 3137 3132 3134 3137 3138 3139 3139 3139 3140 3140 3141 3141 3142 3141 3141 3141 3139 3138 3138 3137 3137 3136
3097 3100 3103 3106 3110 3115 3118 3123 3125 3127 3128 3126 3126 3114 3112 3114 3114 3116 3120 3122 3125 3127 3128 3126 3128 3131 3131 3132 3132 3133 3134 3134 3135 3135 3135 3135 3134 3134 3133 3132 3131 3131 3128 3128
3092 3094 3098 3100 3105 3111 3113 3118 3121 3123 3124 3125 3123 3124 3103 3108 3108 3111 3115 3116 3118 3118 3121 3120 3123 3125 3126 3127 3128 3128 3128 3129 3129 3129 3129 3128 3128 3127 3126 3126 3124 3123 3122 3121
3090 3091 3095 3096 3102 3107 3111 3115 3118 3120 3123 3117 3117 3121 3097 3102 3105 3107 3108 3108 3109 3110 3113 3117 3118 3119 3120 3122 3122 3122 3122 3122 3122 3122 3122 3122 3122 3121 3120 3120 3119 3118 3117 3116
3086 3086 3090 3094 3098 3103 3107 3110 3115 3119 3118 3108 3109 3111 3095 3100 3101 3104 3104 3106 3106 3107 3109 3111 3112 3115 3115 3116 3117 3116 3116 3115 3115 3115 3115 3116 3116 3115 3115 3115 3114 3113 3112 3111
3079 3082 3082 3087 3091 3094 3099 3102 3101 3107 3107 3103 3104 3095 3092 3093 3098 3102 3102 3101 3102 3104 3105 3106 3107 3110 3110 3110 3111 3110 3110 3110 3110 3110 3110 3110 3111 3110 3110 3109 3108 3108 3107 3106
3071 3075 3076 3078 3084 3091 3094 3094 3101 3101 3101 3102 3096 3090 3090 3091 3094 3098 3098 3097 3098 3099 3099 3100 3102 3104 3105 3104 3105 3105 3105 3106 3106 3106 3105 3105 3105 3105 3104 3103 3102 3101 3100 3099
3067 3071 3072 3075 3081 3085 3088 3092 3097 3098 3100 3101 3087 3087 3084 3086 3089 3091 3091 3093 3091 3094 3095 3096 3097 3099 3100 3100 3100 3100 3100 3099 3099 3099 3099 3099 3099 3097 3096 3095 3094 3093 3092 3090
3062 3065 3070 3070 3068 3072 3081 3084 3086 3089 3089 3087 3084 3078 3079 3083 3084 3083 3085 3087 3085 3087 3090 3091 3093 3094 3095 3094 3094 3094 3093 3093 3093 3092 3092 3091 3091 3089 3088 3087 3085 3084 3082 3081
3054 3059 3063 3063 3067 3070 3072 3073 3078 3079 3080 3081 3081 3068 3076 3078 3078 3081 3082 3080 3080 3082 3084 3085 3087 3089 3089 3089 3088 3087 3087 3087 3086 3085 3084 3083 3082 3081 3080 3079 3077 3075 3074 3073
3045 3048 3056 3061 3062 3061 3063 3067 3071 3075 3077 3075 3079 3055 3068 3069 3071 3073 3076 3077 3075 3075 3078 3081 3082 3083 3083 3081 3081 3080 3080 3080 3079 3078 3077 3076 3074 3073 3072 3070 3069 3067 3065 3064
3040 3040 3041 3041 3043 3052 3055 3058 3060 3065 3067 3063 3065 3051 3059 3064 3067 3069 3069 3071 3072 3071 3072 3073 3074 3075 3075 3075 3074 3074 3073 3072 3071 3070 3069 3068 3067 3065 3063 3062 3060 3058 3057 3055
3033 3032 3036 3035 3043 3048 3048 3050 3054 3057 3055 3057 3050 3055 3046 3056 3059 3063 3065 3064 3064 3063 3064 3064 3066 3067 3066 3065 3064 3064 3064 3064 3063 3062 3062 3060 3058 3057 3055 3053 3052 3050 3048 3047
3024 3025 3030 3030 3033 3038 3040 3044 3045 3044 3045 3050 3046 3048 3044 3048 3051 3054 3055 3057 3057 3054 3052 3054 3056 3055 3055 3054 3054 3054 3054 3054 3054 3053 3053 3052 3050 3049 3046 3045 3043 3041 3040 3038
3017 3019 3024 3023 3026 3031 3034 3028 3031 3037 3037 3038 3040 3036 3041 3035 3038 3041 3041 3043 3043 3042 3042 3043 3045 3043 3042 3042 3043 3043 3043 3043 3044 3044 3043 3042 3041 3040 3038 3036 3034 3033 3031 3029
3009 3014 3020 3018 3022 3019 3015 3020 3023 3023 3026 3030 3032 3030 3028 3029 3028 3029 3030 3031 3030 3032 3031 3031 3032 3031 3030 3030 3030 3031 3032 3032 3032 3033 3032 3032 3031 3030 3028 3026 3025 3024 3023 3021
3002 3007 3012 3011 3010 3012 3013 3011 3013 3015 3015 3021 3019 3018 3020 3020 3019 3014 3017 3017 3018 3018 3019 3018 3018 3017 3017 3017 3017 3018 3019 3020 3020 3021 3020 3020 3020 3019 3018 3017 3016 3015 3012 3011
2995 2998 3002 3004 3001 3000 3001 3004 3009 3010 3008 3007 3007 3010 3010 3011 3008 3006 3010 3007 3006 3006 3006 3006 3005 3004 3004 3004 3004 3005 3006 3007 3008 3008 3008 3008 3008 3007 3008 3006 3005 3004 3002 3000
2987 2988 2989 2993 2992 2991 2994 2995 2999 3001 2998 2997 2999 3000 3001 3002 3001 3001 2999 2997 2996 2996 2996 2995 2993 2991 2992 2991 2991 2992 2994 2995 2996 2997 2996 2997 2996 2996 2996 2995 2995 2993 2990 2989
2977 2982 2983 2987 2986 2985 2987 2985 2987 2985 2987 2990 2990 2992 2992 2994 2992 2990 2989 2989 2987 2986 2986 2985 2984 2982 2983 2980 2979 2980 2981 2983 2984 2984 2984 2985 2984 2986 2985 2984 2983 2981 2979 2977
2973 2969 2971 2975 2972 2975 2974 2972 2976 2978 2978 2979 2982 2982 2982 2982 2982 2981 2979 2978 2978 2977 2975 2974 2973 2972 2972 2972 2971 2969 2970 2971 2972 2972 2973 2973 2974 2975 2974 2973 2971 2970 2967 2964
2963 2966 2966 2969 2964 2962 2964 2966 2967 2967 2969 2972 2972 2972 2971 2970 2971 2970 2968 2967 2966 2965 2964 2963 2963 2960 2959 2958 2960 2959 2959 2960 2960 2960 2961 2962 2964 2963 2963 2961 2960 2958 2956 2954
2956 2955 2954 2955 2951 2952 2955 2957 2958 2959 2960 2960 2960 2960 2959 2958 2958 2958 2957 2956 2955 2954 2953 2951 2951 2948 2947 2946 2946 2947 2947 2947 2949 2950 2952 2954 2953 2952 2951 2951 2949 2947 2945 2942
2942 2942 2943 2939 2942 2943 2943 2945 2945 2946 2946 2947 2946 2946 2945 2945 2945 2944 2943 2943 2943 2942 2941 2939 2938 2937 2935 2934 2935 2935 2935 2936 2938 2940 2942 2942 2942 2942 2941 2940 2938 2935 2932 2928